Location: Mesa Vista Observatory
(35.5777°N, 105.6987°W)
Time: 06:07:37
(UTC-06:00)

deb Explorer IX - All Passes

Search period start: 26 September 2020 00:00
Search period end: 06 October 2020 00:00
Orbit: 539 x 1104 km, 38.8° (Epoch: 25 September)

Date Brightness Start Highest point End Pass type
(mag) Time Alt. Az. Time Alt. Az. Time Alt. Az.
26 Sep - 00:05:14 10° WNW 00:09:16 66° SSW 00:13:37 10° ESE night (unlit)
26 Sep - 01:52:56 10° WSW 01:55:40 16° SSW 01:58:36 10° S night (unlit)
26 Sep - 18:21:22 10° SW 18:25:51 41° SSE 18:29:51 10° E daylight
26 Sep - 20:08:09 10° W 20:12:31 68° NNW 20:16:33 10° ENE visible
26 Sep - 21:55:27 10° WNW 21:59:28 56° N 22:03:28 10° E visible
26 Sep - 23:42:14 10° WNW 23:46:14 64° SSW 23:50:29 10° ESE night (unlit)
27 Sep - 01:30:03 10° WSW 01:32:36 16° SW 01:35:18 10° S night (unlit)
27 Sep - 16:15:39 10° SSE 16:16:21 10° SE 16:17:01 10° SE daylight
27 Sep - 17:58:07 10° SW 18:02:47 42° SSE 18:06:54 10° E daylight
27 Sep - 19:45:01 10° W 19:49:29 69° NNW 19:53:34 10° ENE visible
27 Sep - 21:32:22 10° WNW 21:36:27 56° N 21:40:26 10° E visible
27 Sep - 23:19:14 10° WNW 23:23:13 63° SSW 23:27:22 10° ESE night (unlit)
28 Sep - 01:07:10 10° WSW 01:09:33 15° SW 01:12:02 10° S night (unlit)
28 Sep - 15:51:44 10° SSE 15:53:13 11° SE 15:54:41 10° SE daylight
28 Sep - 17:34:51 10° SW 17:39:43 44° SSE 17:43:57 10° E daylight
28 Sep - 19:21:50 10° W 19:26:27 69° NNW 19:30:35 10° ENE visible
28 Sep - 21:09:17 10° WNW 21:13:27 56° N 21:17:25 10° E visible
28 Sep - 22:56:12 10° WNW 23:00:12 62° SSW 23:04:17 10° ESE night (unlit)
29 Sep - 00:44:16 10° WSW 00:46:29 14° SW 00:48:46 10° S night (unlit)
29 Sep - 15:28:04 10° SSE 15:30:06 12° SE 15:32:03 10° ESE daylight
29 Sep - 17:11:34 10° SW 17:16:38 45° SSE 17:21:00 10° E daylight
29 Sep - 18:58:38 10° W 19:03:25 69° NNW 19:07:37 10° ENE daylight
29 Sep - 20:46:09 10° WNW 20:50:25 57° N 20:54:25 10° E visible
29 Sep - 22:33:09 10° WNW 22:37:11 62° SSW 22:41:12 10° ESE visible
30 Sep - 00:21:21 10° WSW 00:23:26 14° SW 00:25:32 10° S night (unlit)
30 Sep - 15:04:27 10° S 15:06:58 13° SE 15:09:19 10° ESE daylight
30 Sep - 16:48:16 10° SW 16:53:32 47° SSE 16:58:03 10° E daylight
30 Sep - 18:35:25 10° W 18:40:21 69° NNW 18:44:40 10° ENE daylight
30 Sep - 20:23:01 10° WNW 20:27:24 58° N 20:31:25 10° E visible
30 Sep - 22:10:05 10° WNW 22:14:10 61° SSW 22:18:09 10° ESE visible
30 Sep - 23:58:26 10° WSW 00:00:22 13° SW 00:02:20 10° S night (unlit)
01 Oct - 14:40:55 10° S 14:43:48 14° SE 14:46:31 10° ESE daylight
01 Oct - 16:24:57 10° SW 16:30:25 48° SSE 16:35:05 10° E daylight
01 Oct - 18:12:10 10° W 18:17:17 69° NNW 18:21:42 10° ENE daylight
01 Oct - 19:59:51 10° WNW 20:04:22 58° N 20:08:26 10° E visible
01 Oct - 21:46:59 10° WNW 21:51:09 60° SSW 21:55:07 10° ESE visible
01 Oct - 23:35:29 10° WSW 23:37:18 13° SW 23:39:09 10° S night (unlit)
02 Oct - 14:17:23 10° S 14:20:39 15° SE 14:23:40 10° ESE daylight
02 Oct - 16:01:37 10° SW 16:07:17 50° SSE 16:12:07 10° E daylight
02 Oct - 17:48:54 10° W 17:54:12 70° NNW 17:58:44 10° ENE daylight
02 Oct - 19:36:39 10° WNW 19:41:20 59° N 19:45:28 10° E visible
02 Oct - 21:23:53 10° WNW 21:28:07 60° SSW 21:32:05 10° SE visible
02 Oct - 23:12:30 10° WSW 23:14:15 12° SW 23:16:00 10° SSW night (unlit)
03 Oct - 13:53:52 10° S 13:57:27 16° SE 14:00:47 10° ESE daylight
03 Oct - 15:38:15 10° SW 15:44:08 51° SSE 15:49:09 10° E daylight
03 Oct - 17:25:37 10° W 17:31:06 70° NNW 17:35:46 10° ENE daylight
03 Oct - 19:13:26 10° WNW 19:18:16 60° N 19:22:30 10° E visible
03 Oct - 21:00:44 10° WNW 21:05:05 60° SSW 21:09:05 10° SE visible
03 Oct - 22:49:28 10° WSW 22:51:11 12° SW 22:52:54 10° SSW night (unlit)
04 Oct - 13:30:23 10° S 13:34:16 16° SE 13:37:51 10° ESE daylight
04 Oct - 15:14:54 10° SW 15:20:58 53° SSE 15:26:09 10° ENE daylight
04 Oct - 17:02:18 10° W 17:08:00 70° NNW 17:12:48 10° ENE daylight
04 Oct - 18:50:11 10° WNW 18:55:12 61° N 18:59:33 10° E daylight
04 Oct - 20:37:34 10° WNW 20:42:02 60° SSW 20:46:05 10° SE visible
04 Oct - 22:26:24 10° WSW 22:28:08 12° SW 22:29:50 10° SSW visible
05 Oct - 13:06:55 10° S 13:11:03 17° SE 13:14:54 10° ESE daylight
05 Oct - 14:51:31 10° SW 14:57:48 54° SSE 15:03:08 10° ENE daylight
05 Oct - 16:38:59 10° W 16:44:52 71° N 16:49:50 10° ENE daylight
05 Oct - 18:26:55 10° WNW 18:32:08 62° N 18:36:34 10° E daylight
05 Oct - 20:14:23 10° WNW 20:19:00 60° SSW 20:23:06 10° SE visible
05 Oct - 22:03:17 10° WSW 22:05:04 12° SW 22:06:48 10° SSW visible
